Flight Track Log - Related Links

Times and Time Zones

All times are in EDT time to prevent confusion due to time zone crossing. See the EMD24 flight status page for this flight to view local times or setup timezone preferences in your user account.

Time Position Orientation Groundspeed Altitude Reporting Facility
EDT Latitude Longitude Course Direction KTS MPH feet Rate Location/Type
Thu 09:35:41 AM 39.1764 -101.7483 202° Southwest 168 193 8,400  Level Denver Center
Thu 09:36:42 AM 39.1353 -101.7703 202° Southwest 169 194 9,200 934 Climbing Denver Center
Thu 09:37:43 AM 39.0858 -101.7956 202° Southwest 171 197 10,300 1,033 Climbing Denver Center
Thu 09:38:44 AM 39.0447 -101.8200 205° Southwest 170 196 11,300 927 Climbing Denver Center
Thu 09:39:46 AM 39.0017 -101.8431 203° Southwest 174 200 12,200 927 Climbing Denver Center
Thu 09:40:47 AM 38.9517 -101.8708 203° Southwest 176 203 13,200 885 Climbing Denver Center
Thu 09:41:48 AM 38.9072 -101.8969 205° Southwest 182 209 14,000 390 Climbing Denver Center
Thu 09:42:50 AM 38.8472 -101.9286 202° Southwest 211 243 14,000  Level Denver Center
Thu 09:43:51 AM 38.7908 -101.9544 200° South 223 257 14,000  Level Denver Center
Thu 09:44:52 AM 38.7339 -101.9844 202° Southwest 230 265 14,000  Level Denver Center
Thu 09:45:54 AM 38.6672 -102.0172 201° Southwest 229 264 14,000  Level Denver Center
Thu 09:46:55 AM 38.6097 -102.0483 203° Southwest 234 269 14,000  Level Denver Center
Thu 09:47:56 AM 38.5447 -102.0825 202° Southwest 229 264 14,000  Level Denver Center
Thu 09:48:58 AM 38.4872 -102.1142 203° Southwest 234 269 14,000  Level Denver Center
Thu 09:49:59 AM 38.4317 -102.1431 202° Southwest 228 262 14,000  Level Denver Center
Thu 09:51:00 AM 38.3647 -102.1761 201° Southwest 229 264 14,000  Level Denver Center
Thu 09:52:02 AM 38.3083 -102.2050 202° Southwest 228 262 14,000  Level Denver Center
Thu 09:53:03 AM 38.2417 -102.2394 202° Southwest 230 265 14,000  Level Denver Center
Thu 09:54:04 AM 38.1858 -102.2686 202° Southwest 228 262 14,000  Level Denver Center
Thu 09:55:06 AM 38.1192 -102.3022 202° Southwest 230 265 14,000  Level Denver Center
Thu 09:56:07 AM 38.0722 -102.3269 203° Southwest 229 264 14,000 49 Level Denver Center
Thu 09:57:09 AM 38.0067 -102.3606 202° Southwest 228 262 14,100 -311 Climbing Denver Center
Thu 09:58:22 AM 37.9403 -102.3950 202° Southwest 231 266 13,300 -1,022 Descending Denver Center
Thu 09:59:24 AM 37.8653 -102.4331 202° Southwest 251 289 11,800 -1,268 Descending Denver Center
Thu 10:00:25 AM 37.7933 -102.4700 202° Southwest 252 290 10,700 -1,024 Descending Denver Center
Thu 10:01:27 AM 37.7253 -102.5031 201° Southwest 247 284 9,700 -1,220 Descending Denver Center
Thu 10:02:28 AM 37.6661 -102.5294 199° South 240 276 8,200 -1,475 Descending Denver Center

Login

Don't have an account? Register now (free) for customized features, flight alerts, and more!